WetterOnline ( https://www.wetteronline.de )

Wetter aktuell Keltern

Aktuelles Wetter: Mühlacker (245m)

6-stündlich | Neueste Meldungen
Ortszeit Temperatur Wetter
Mi, 29.09. 2:00 10.4° C wolkig
Di, 28.09. 20:00 11.9° C bedeckt
Di, 28.09. 14:00 16.4° C bewölkt
Di, 28.09. 8:00 9.3° C wolkig
Di, 28.09. 2:00 13.1° C Sprühregen
Mo, 27.09. 20:00 16.9° C wolkig
Mo, 27.09. 14:00 22.6° C bewölkt
Mo, 27.09. 8:00 11.3° C Nebel
Ortszeit Temperatur Wetter
Mi, 29.09. 3:00 10.4° C bewölkt
Mi, 29.09. 2:50 10.4° C bewölkt
Mi, 29.09. 2:40 10.5° C bewölkt
Mi, 29.09. 2:30 10.2° C bewölkt
Mi, 29.09. 2:20 10.2° C bewölkt
Mi, 29.09. 2:10 10.2° C wolkig
Mi, 29.09. 2:00 10.4° C wolkig
Mi, 29.09. 1:30 10.7° C wolkig
Mi, 29.09. 1:00 10.9° C bedeckt
Mi, 29.09. 0:30 10.5° C bewölkt
Mi, 29.09. 0:00 10.3° C bewölkt
Ortszeit Relative Feuchte Sichtweite
Mi, 29.09. 2:00 93% 30 km
Di, 28.09. 20:00 88% 45 km
Di, 28.09. 14:00 59% 65 km
Di, 28.09. 8:00 95% 16 km
Di, 28.09. 2:00 87% 28 km
Mo, 27.09. 20:00 86% 45 km
Mo, 27.09. 14:00 54% 60 km
Mo, 27.09. 8:00 100% <100 m
Ortszeit Relative Feuchte Sichtweite
Mi, 29.09. 3:00 92% 28 km
Mi, 29.09. 2:50 92% -
Mi, 29.09. 2:40 92% -
Mi, 29.09. 2:30 90% 30 km
Mi, 29.09. 2:20 90% -
Mi, 29.09. 2:10 93% -
Mi, 29.09. 2:00 93% 30 km
Mi, 29.09. 1:30 90% 35 km
Mi, 29.09. 1:00 90% 35 km
Mi, 29.09. 0:30 94% 35 km
Mi, 29.09. 0:00 92% 35 km
Ortszeit Niederschlagsmenge Niederschlagsart
Mi, 29.09. 2:00 0.0 l/m2 in 6 Std. -
Di, 28.09. 20:00 0.0 l/m2 in 12 Std. -
Di, 28.09. 14:00 0.0 l/m2 in 6 Std. -
Di, 28.09. 8:00 0.2 l/m2 in 12 Std. Regen
Di, 28.09. 2:00 0.2 l/m2 in 6 Std. Regen
Mo, 27.09. 20:00 0.1 l/m2 in 12 Std. Regen
Mo, 27.09. 14:00 0.0 l/m2 in 6 Std. -
Mo, 27.09. 8:00 0.1 l/m2 in 12 Std. -
Ortszeit Niederschlagsmenge Niederschlagsart
Mi, 29.09. 3:00 0.0 l/m2 in 1 Std. -
Mi, 29.09. 2:50 keine Meldung -
Mi, 29.09. 2:40 keine Meldung -
Mi, 29.09. 2:30 0.0 l/m2 in 1 Std. -
Mi, 29.09. 2:20 keine Meldung -
Mi, 29.09. 2:10 keine Meldung -
Mi, 29.09. 2:00 0.0 l/m2 in 1 Std. -
Mi, 29.09. 1:30 0.0 l/m2 in 1 Std. -
Mi, 29.09. 1:00 0.0 l/m2 in 1 Std. -
Mi, 29.09. 0:30 0.0 l/m2 in 1 Std. -
Mi, 29.09. 0:00 0.0 l/m2 in 1 Std. -
Ortszeit Stärke Spitze Richtung
km/h Bft. km/h Grad Sektor
Mi, 29.09. 2:00 4 1 11 100° O
Di, 28.09. 20:00 2 1 19 120° SO
Di, 28.09. 14:00 7 2 17 70° O
Di, 28.09. 8:00 2 1 30 30° NO
Di, 28.09. 2:00 18 3 36 310° NW
Mo, 27.09. 20:00 2 1 20 80° O
Mo, 27.09. 14:00 4 1 11 280° W
Mo, 27.09. 8:00 0 0 11 - -
Ortszeit Stärke Spitze Richtung
km/h Bft. km/h Grad Sektor
Mi, 29.09. 3:00 2 1 6 90° O
Mi, 29.09. 2:50 2 1 - 90° O
Mi, 29.09. 2:40 2 1 - 120° SO
Mi, 29.09. 2:30 4 1 4 270° W
Mi, 29.09. 2:20 4 1 - 270° W
Mi, 29.09. 2:10 4 1 - 80° O
Mi, 29.09. 2:00 4 1 11 100° O
Mi, 29.09. 1:30 4 1 11 120° SO
Mi, 29.09. 1:00 4 1 7 130° SO
Mi, 29.09. 0:30 2 1 4 90° O
Mi, 29.09. 0:00 0 0 4 - -
Ortszeit Untergrenze Bedeckung Gattung
total tief tief mittel hoch
Mi, 29.09. 2:00 2700 m 8/8 1/8 - - -
Di, 28.09. 20:00 6900 m 8/8 8/8 - - -
Di, 28.09. 14:00 990 m 8/8 4/8 - - -
Di, 28.09. 8:00 7200 m 8/8 0/8 - - -
Di, 28.09. 2:00 240 m 8/8 8/8 - - -
Mo, 27.09. 20:00 1500 m 7/8 2/8 - - -
Mo, 27.09. 14:00 - 7/8 - - - -
Mo, 27.09. 8:00 <30 m 8/8 0/8 - - -
Ortszeit Bedeckungsgrad in Achtel und Wolkenuntergrenze
Mi, 29.09. 3:00 6(1260m) 8(4800m) 8(5700m)
Mi, 29.09. 2:50 6(1260m) 8(4800m) 8(5700m)
Mi, 29.09. 2:40 5(1290m) 8(5100m) 8(5700m)
Mi, 29.09. 2:30 4(1800m) 5(3000m) 8(5400m)
Mi, 29.09. 2:20 4(1800m) 5(3000m) 8(5400m)
Mi, 29.09. 2:10 3(1800m) 5(3000m) 8(5400m)
Mi, 29.09. 2:00 1(2700m) 8(5100m) 8(5100m)
Mi, 29.09. 1:30 3(1800m) 8(5400m) 8(7800m)
Mi, 29.09. 1:00 8(1800m) 8(5400m) 8(7800m)
Mi, 29.09. 0:30 7(1800m) 7(3000m) 8(6300m)
Mi, 29.09. 0:00 7(1800m) 8(6000m) 8(8100m)
Ortszeit Luftdruck NN (hPa) Tendenz (hPa in 3 Std.)
Mi, 29.09. 2:00 1020 - 1,0
Di, 28.09. 20:00 1021 - 1,0
Di, 28.09. 14:00 1024 - 1,4
Di, 28.09. 8:00 1026 + 0,6
Di, 28.09. 2:00 1024 + 3,4
Mo, 27.09. 20:00 1019 + 0,8
Mo, 27.09. 14:00 1017 - 0,7
Mo, 27.09. 8:00 1019 0,0
Ortszeit Luftdruck NN (hPa) Tendenz (hPa in 3 Std.)
Mi, 29.09. 3:00 1020 - 0,9
Mi, 29.09. 2:50 1020 keine Meldung
Mi, 29.09. 2:40 1020 keine Meldung
Mi, 29.09. 2:30 1020 - 0,7
Mi, 29.09. 2:20 1020 keine Meldung
Mi, 29.09. 2:10 1020 keine Meldung
Mi, 29.09. 2:00 1020 - 1,0
Mi, 29.09. 1:30 1020 - 1,2
Mi, 29.09. 1:00 1020 - 0,9
Mi, 29.09. 0:30 1020 - 0,8
Mi, 29.09. 0:00 1021 - 0,7
Ortszeit Schneehöhe (cm)
Mi, 29.09. 2:00 -
Di, 28.09. 20:00 -
Di, 28.09. 14:00 -
Di, 28.09. 8:00 -
Di, 28.09. 2:00 -
Mo, 27.09. 20:00 -
Mo, 27.09. 14:00 -
Mo, 27.09. 8:00 -
Ortszeit Schneehöhe (cm)
Mi, 29.09. 3:00 -
Mi, 29.09. 2:50 -
Mi, 29.09. 2:40 -
Mi, 29.09. 2:30 -
Mi, 29.09. 2:20 -
Mi, 29.09. 2:10 -
Mi, 29.09. 2:00 -
Mi, 29.09. 1:30 -
Mi, 29.09. 1:00 -
Mi, 29.09. 0:30 -
Mi, 29.09. 0:00 -
Link zu dieser Seite / Seite empfehlen

Das Wetter in ...